Flag for Germany Weather past 2 weeks in Siegburg, North Rhine-Westphalia, Germany

Now
37 °F

Overcast.


Feels Like: 32 °F
Forecast: 37 / 42 °F
Wind: 6 mph from Northwest

Location: Bonn-Hangelar

Current Time: Jan 27, 2015 at 12:34:19 AM

Latest Report: Jan 27, 2015 at 12:00 AM


Visibility: 9 mi

Pressure: 30.19 "Hg

Humidity: 95%

Dew point: 36 °F

Location of SiegburgLocation

Historic Weather in Siegburg — Graph

°F

Siegburg temperature yesterday

Maximum temperature yesterday: 41 °F (at 6:00 PM)
Minimum temperature yesterday: 34 °F (at 1:00 AM)
Average temperature yesterday: 37 °F

Past Weeks' High & Low Weather Summary

 TemperatureHumidityPressure
High51 °F (Jan 13, 1:00 PM)100% (Jan 19, 11:00 PM)30.46 "Hg (Jan 19, 11:00 PM)
Low26 °F (Jan 21, 7:00 AM)65% (Jan 20, 3:00 PM)29.44 "Hg (Jan 15, 2:00 PM)
Average36 °F88%29.98 "Hg
* Reported Jan 11 11:00 PM — Jan 26 11:00 PM, Siegburg, Weather by CustomWeather, © 2014

Note: Actual official high and low records may vary slightly from our data, if they occured in-between our weather recording intervals... More about our weather records

Advertising

Siegburg weather history for previous 24 hours

 ConditionsComfort  
Time TempWeatherWind HumidityBarometerVisibility
11:00 PM
Jan 26
38 °FLow clouds.7 mph96%30.18 "Hg6 mi
10:00 PM39 °FOvercast.6 mph95%30.16 "Hg7 mi
9:00 PM39 °FLow clouds.6 mph93%30.16 "Hg16 mi
8:00 PM40 °FOvercast.5 mph93%30.14 "Hg16 mi
7:00 PM41 °FOvercast.6 mph93%30.12 "Hg11 mi
6:00 PM41 °FLow clouds.6 mph97%30.10 "Hg3 mi
5:00 PM41 °FRain. Low clouds.6 mph100%30.07 "Hg1 mi
4:00 PM39 °FDrizzle. Low clouds.5 mph100%30.08 "Hg2 mi
3:00 PM39 °FDrizzle. Low clouds.7 mph99%30.09 "Hg2 mi
2:00 PM38 °FDrizzle. Low clouds.7 mph100%30.11 "Hg2 mi
1:00 PM38 °FRain. Low clouds.7 mph100%30.12 "Hg2 mi
12:00 PM38 °FLow clouds.8 mph98%30.15 "Hg6 mi
11:00 AM37 °FRain. Low clouds.8 mph99%30.17 "Hg3 mi
10:00 AM36 °FRain. Low clouds.8 mph98%30.19 "Hg3 mi
9:00 AM36 °FRain. Passing clouds.5 mph99%30.20 "Hg14 mi
8:00 AM35 °FRain. Low clouds.8 mph99%30.22 "Hg2 mi
7:00 AM35 °FLow clouds.8 mph99%30.23 "Hg4 mi
6:00 AM35 °FFog.6 mph99%30.24 "Hg4 mi
5:00 AM35 °FLow clouds.7 mph98%30.26 "Hg6 mi
4:00 AM35 °FDrizzle. Low clouds.7 mph98%30.29 "Hg2 mi
3:00 AM35 °FLight freezing rain. Low clouds.7 mph99%30.32 "Hg1 mi
2:00 AM34 °FDrizzle. Low clouds.6 mph98%30.34 "Hg1 mi
1:00 AM34 °FDrizzle. Low clouds.6 mph98%30.34 "Hg1 mi
12:00 AM34 °FLight rain. Low clouds.6 mph97%30.37 "Hg2 mi
Weather by CustomWeather, © 2014

See weather overviewHow to use our weather pages